Find Starlink 30811

NORAD ID: 58167 Int'l Des: 2023-166 Owner: SPXS Country: US Constellation: starlink operational
LEOCIRCULAR

当前视图

正在加载3D地球...

About Starlink 30811

Starlink 30811 (NORAD 58167) is a starlink constellation satellite (v2 mini) launched Oct 29, 2023 by SPXS of US. It operates in LEO, CIRCULAR orbit with a mass of 730.00 kg.

即将过境

Passes for default location (London). Set your location on the main map for personalized predictions.

高度历史

Loading altitude history...

两行轨道根数

1 58167U 23166T 26263.06332747 -.00000135 00000-0 74134-5 0 9990
2 58167 53.1596 35.0060 0001060 89.7391 270.3732 15.31702176162811
Epoch: Sep 20, 2026 • Age: 21 hours

当前状态

高度 477.9 km
远地点 / 近地点 N/A
速度 7.63 km/s
星下点 -23.67°S, 111.75°W
发射日期 Oct 29, 2023
运行时间 2.8 years
类型 internet

技术详情

分类 Payload
质量 730.00 kg
干质量 700.00 kg
长度 0.30 m
跨度 29.00 m
形状 ? Box + pan
制造商 SPXS
平台类型 Starlink V2M
阶段状态 In Orbit
所有者/国家 SPXS/US

Most Searched